Tracking 30918 objects as of 2-Jul-2025
HD Live streaming from Space Station
objects crossing your sky now

COSMOS 1408 DEB

Track COSMOS 1408 DEB now!
10-day predictions


NORAD ID: 50058
Int'l Code: 1982-092SW
Perigee: 396.9 km
Apogee: 422.7 km
Inclination: 82.6 °
Period: 92.6 minutes
Semi major axis: 6780 km
RCS: Unknown
Launch date: September 16, 1982
Source: Commonwealth of Independent States (former USSR) (CIS)
Launch site: PLESETSK MISSILE AND SPACE COMPLEX (PKMTR)

Note: This is SATELLITE DEBRIS
Your satellite tracking list
Your tracking list is empty




NASA's NSSDC Master Catalog

Two Line Element Set (TLE):
1 50058U 82092SW  25182.89705720  .00013803  00000-0  20489-3 0  9996
2 50058  82.6109 239.4137 0019015 350.4621   9.6269 15.54829624202521
Source of the keplerian elements: AFSPC